TimeEDT,TemperatureF,Dew PointF,Humidity,Sea Level PressureIn,VisibilityMPH,Wind Direction,Wind SpeedMPH,Gust SpeedMPH,PrecipitationIn,Events,Conditions,WindDirDegrees,DateUTC
12:41 AM,64.4,62.6,94,29.67,3.0,SSW,16.1,36.8,0.06,Rain-Thunderstorm,Light Rain,200,2013-04-20 04:41:00
12:50 AM,64.4,62.6,94,29.66,6.0,SSW,12.7,25.3,0.07,Rain,Light Rain,200,2013-04-20 04:50:00
12:53 AM,64.9,63.0,93,29.66,7.0,SSW,15.0,21.9,0.07,Rain,Light Rain,200,2013-04-20 04:53:00
1:53 AM,64.0,62.1,93,29.65,7.0,SSW,15.0,24.2,0.05,Rain,Light Rain,200,2013-04-20 05:53:00
2:18 AM,62.6,60.8,94,29.65,5.0,SSW,13.8,23.0,0.03,Rain,Light Rain,210,2013-04-20 06:18:00
2:53 AM,63.0,61.0,93,29.62,10.0,SSW,8.1,17.3,0.05,Rain,Light Rain,200,2013-04-20 06:53:00
3:14 AM,62.6,60.8,94,29.62,10.0,SSW,10.4,17.3,0.00,,Overcast,200,2013-04-20 07:14:00
3:21 AM,62.6,60.8,94,29.62,10.0,SSW,13.8,19.6,0.00,,Overcast,200,2013-04-20 07:21:00
3:53 AM,63.0,61.0,93,29.62,9.0,SSW,11.5,19.6,0.01,Rain,Light Rain,200,2013-04-20 07:53:00
4:53 AM,62.1,61.0,96,29.64,5.0,West,12.7,16.1,0.02,Rain,Light Rain,260,2013-04-20 08:53:00
5:35 AM,53.6,51.8,94,29.67,7.0,Variable,5.8,-,0.06,Rain,Light Rain,0,2013-04-20 09:35:00
5:53 AM,53.1,51.1,93,29.70,9.0,Variable,6.9,-,0.07,Rain,Light Rain,0,2013-04-20 09:53:00
6:53 AM,52.0,50.0,93,29.73,4.0,WNW,8.1,-,0.08,Rain,Light Rain,290,2013-04-20 10:53:00
7:09 AM,50.0,48.2,94,29.75,5.0,NW,12.7,-,0.02,Rain,Light Rain,310,2013-04-20 11:09:00
7:53 AM,48.9,46.9,93,29.78,5.0,NW,6.9,-,0.09,Rain,Light Rain,320,2013-04-20 11:53:00
8:00 AM,48.2,46.4,93,29.78,5.0,NW,6.9,-,0.01,Rain,Light Rain,310,2013-04-20 12:00:00
8:21 AM,48.2,46.4,93,29.81,8.0,WNW,8.1,-,0.02,Rain,Light Rain,300,2013-04-20 12:21:00
8:28 AM,48.2,46.4,93,29.80,9.0,NW,5.8,-,0.03,Rain,Light Rain,310,2013-04-20 12:28:00
8:53 AM,48.9,46.0,90,29.79,10.0,WNW,9.2,-,0.03,,Overcast,290,2013-04-20 12:53:00
9:42 AM,50.0,44.6,82,29.82,10.0,West,9.2,-,0.00,,Overcast,270,2013-04-20 13:42:00
9:53 AM,48.9,42.1,77,29.82,10.0,West,10.4,-,0.00,,Overcast,280,2013-04-20 13:53:00
10:53 AM,51.1,39.0,63,29.86,10.0,West,9.2,23.0,N/A,,Mostly Cloudy,280,2013-04-20 14:53:00
11:53 AM,53.1,39.0,59,29.87,10.0,West,11.5,17.3,N/A,,Mostly Cloudy,260,2013-04-20 15:53:00
12:53 PM,55.9,35.1,45,29.87,10.0,WNW,13.8,26.5,N/A,,Partly Cloudy,290,2013-04-20 16:53:00
1:53 PM,57.0,36.0,45,29.87,10.0,West,15.0,20.7,N/A,,Clear,270,2013-04-20 17:53:00
2:53 PM,57.9,32.0,37,29.88,10.0,WNW,16.1,23.0,N/A,,Clear,300,2013-04-20 18:53:00
3:53 PM,57.9,30.0,35,29.91,10.0,WNW,12.7,21.9,N/A,,Clear,300,2013-04-20 19:53:00
4:53 PM,57.0,30.0,36,29.94,10.0,West,16.1,21.9,N/A,,Clear,280,2013-04-20 20:53:00
5:53 PM,57.0,28.9,34,29.96,10.0,West,11.5,19.6,N/A,,Clear,260,2013-04-20 21:53:00
6:53 PM,55.9,30.0,37,29.99,10.0,West,4.6,-,N/A,,Overcast,280,2013-04-20 22:53:00
7:53 PM,52.0,28.0,40,30.03,10.0,NW,6.9,-,N/A,,Clear,310,2013-04-20 23:53:00
8:53 PM,52.0,28.0,40,30.09,10.0,NW,11.5,17.3,N/A,,Clear,310,2013-04-21 00:53:00
9:53 PM,50.0,27.0,41,30.14,10.0,NNW,5.8,-,N/A,,Clear,330,2013-04-21 01:53:00
10:53 PM,48.0,25.0,41,30.17,10.0,NW,13.8,21.9,N/A,,Clear,320,2013-04-21 02:53:00
11:53 PM,45.0,24.1,44,30.22,10.0,WNW,12.7,18.4,N/A,,Clear,300,2013-04-21 03:53:00